Wind_Speed
10 10 9 9 8 8 8 7 6 6 6 5 5 5 5 5 6 6 7 7 8 7 7 8 8 8 7 7 6 7 7 7 7 7 8 8 8 7 6 6 6 6 6 6
11 10 9 9 9 8 8 7 7 6 5 5 5 5 5 5 6 6 7 7 7 7 7 8 8 7 7 6 6 7 7 7 7 7 7 7 7 6 6 6 6 6 5 5
12 11 11 11 10 10 9 9 8 7 6 7 7 6 5 5 6 6 6 7 7 7 7 8 7 7 6 6 6 7 7 7 7 7 7 7 6 6 5 5 5 5 5 5
13 12 12 12 11 11 11 10 10 9 8 8 8 7 6 6 6 6 6 7 7 7 7 7 7 7 7 7 7 7 7 7 7 7 7 6 6 6 5 5 4 4 5 5
14 13 13 13 12 13 12 12 11 11 11 10 8 8 6 7 7 7 7 7 7 7 7 7 7 7 7 7 7 7 7 7 6 7 7 6 5 5 5 5 4 4 4 5
15 14 14 13 13 13 13 13 13 13 12 12 10 9 7 7 7 7 7 7 7 7 6 7 7 8 7 7 7 7 7 6 6 7 7 6 6 5 5 5 4 5 5 5
15 15 15 14 13 13 14 14 14 14 13 12 11 10 9 8 7 7 7 7 7 7 7 7 7 8 8 7 7 7 7 7 7 7 7 6 6 5 5 5 5 5 5 6
16 16 16 15 15 14 14 15 15 14 14 13 12 12 10 9 8 8 8 8 8 8 8 8 8 8 8 7 8 7 7 7 7 7 7 7 7 6 6 6 6 6 6 7
17 17 17 17 16 15 15 16 16 15 15 14 14 13 11 10 9 8 9 9 9 9 9 9 9 8 9 8 8 8 8 8 8 8 8 8 7 7 7 7 6 6 7 7
18 18 17 17 17 17 16 15 16 17 16 15 15 15 13 12 10 9 9 9 9 10 10 9 9 9 9 9 9 9 8 8 8 8 8 7 7 7 7 7 7 7 7 7
19 19 18 19 19 18 18 17 17 18 18 17 16 14 13 12 11 11 10 10 10 10 10 10 10 10 10 10 10 9 9 8 8 9 8 8 7 7 7 7 8 8 8 8
19 20 20 19 19 19 19 19 19 19 19 18 17 16 15 14 13 12 12 12 12 11 11 11 11 11 11 11 10 10 10 9 10 10 9 8 8 8 9 9 9 9 9 8
20 20 21 20 20 20 20 21 21 21 20 19 18 16 16 15 15 14 14 13 13 12 11 11 11 12 12 11 11 10 11 11 11 11 11 10 10 10 10 10 10 10 9 9
20 21 21 21 20 20 21 21 22 22 22 20 18 17 17 17 16 16 15 15 14 13 12 12 12 12 12 12 12 11 11 11 11 12 12 12 11 11 11 11 11 11 10 10
21 22 22 22 21 21 22 21 22 22 22 21 20 19 19 19 18 18 17 16 16 15 14 13 13 13 13 13 12 12 12 12 12 12 12 12 12 12 12 12 12 12 11 10
22 22 23 22 22 22 22 21 21 23 23 22 21 20 19 18 18 18 18 18 17 17 16 15 15 14 13 13 13 13 13 13 13 12 12 12 12 13 13 12 13 13 12 12
22 22 23 22 22 22 23 21 22 23 23 21 22 21 20 19 19 19 18 18 18 17 17 17 16 15 15 14 14 14 14 14 14 13 13 13 12 13 13 13 14 14 14 13
23 23 24 24 24 24 22 21 22 22 23 22 21 21 21 21 21 20 19 18 18 19 18 18 17 17 17 17 16 16 16 16 15 15 14 14 14 14 14 14 14 14 15 15
23 23 24 24 25 24 22 22 22 23 23 22 22 21 22 21 21 21 21 19 19 19 19 20 19 19 18 18 18 18 17 17 16 16 15 15 15 15 15 15 15 15 15 16
24 24 24 24 25 24 21 21 22 23 23 22 23 22 22 22 22 22 22 22 21 22 21 20 20 21 21 20 20 19 18 18 17 17 16 16 16 16 16 16 16 16 16 16
24 24 25 25 25 24 22 21 22 22 22 22 22 22 23 23 23 23 23 23 23 23 23 23 22 22 22 22 21 21 20 20 20 20 19 18 18 18 18 17 17 17 18 18
24 24 25 25 25 23 22 22 23 23 23 22 22 23 23 24 24 24 24 24 24 25 25 25 24 24 24 24 23 23 23 23 23 23 22 20 19 19 19 19 19 19 19 19
24 24 24 25 24 23 23 24 25 25 24 23 23 23 24 25 25 25 25 25 25 25 26 26 25 25 24 24 25 25 25 25 25 24 24 23 22 21 21 20 20 20 20 21
24 25 25 25 25 25 24 25 26 26 26 25 25 26 26 26 26 26 26 26 26 26 26 26 27 26 25 25 26 25 26 26 26 25 25 25 24 24 23 23 22 22 22 22
25 26 26 25 25 24 24 25 26 27 27 27 27 27 27 26 25 25 26 26 26 27 27 27 28 27 27 27 26 26 26 26 27 26 27 27 26 26 25 24 24 24 24 24
25 25 26 25 26 26 24 25 25 26 26 26 26 27 27 27 27 26 26 27 27 27 27 27 27 28 28 27 27 27 27 28 28 28 28 27 28 27 27 26 26 26 26 26
Wind_Direction
260 261 261 257 256 254 255 265 265 273 276 273 273 284 293 298 303 306 307 309 312 314 313 316 320 323 321 317 315 314 313 315 316 311 310 310 308 304 296 290 288 291 290 290
258 257 257 255 253 256 260 263 265 268 269 274 283 290 291 297 301 307 307 304 304 308 312 313 315 320 321 318 317 315 316 316 314 313 311 310 307 306 302 296 292 293 291 288
258 254 251 250 251 254 255 256 259 265 263 269 279 289 295 297 301 308 312 311 308 305 309 313 314 315 315 316 315 317 318 317 310 308 310 307 302 302 300 298 298 300 299 295
253 250 249 249 251 252 250 253 258 264 269 272 277 287 295 298 302 308 311 311 307 304 307 311 311 312 315 320 317 313 314 316 312 306 304 301 300 301 300 297 298 305 307 303
252 251 249 248 250 252 252 253 257 259 265 266 269 277 287 293 298 304 309 310 309 308 306 309 311 311 313 316 318 316 311 308 307 304 300 294 293 296 297 296 295 297 304 307
253 250 246 246 246 249 251 253 255 259 261 262 263 268 281 290 298 302 306 307 308 311 305 304 307 309 308 310 310 313 314 307 301 301 298 292 290 291 297 294 294 296 300 306
250 248 246 246 246 246 250 253 255 257 256 258 264 265 273 278 289 296 300 303 307 304 299 300 306 310 308 304 306 309 312 307 296 296 295 293 292 288 291 293 286 291 296 303
250 246 245 245 247 249 250 253 253 258 261 259 261 265 270 274 286 288 290 295 299 298 296 298 300 302 302 301 306 306 308 310 302 293 291 288 288 287 286 290 286 287 289 296
251 246 244 245 246 248 247 250 253 254 256 259 258 264 269 274 280 286 287 289 292 296 294 296 297 299 299 300 302 301 300 301 301 297 289 283 282 283 285 288 287 284 287 292
252 250 248 247 247 247 249 250 249 249 253 259 261 262 269 272 270 275 280 285 291 295 294 292 293 295 297 298 297 295 295 294 293 293 289 284 280 277 279 280 285 284 287 292
255 254 249 247 248 248 249 248 250 250 251 258 266 264 269 268 268 270 270 277 285 290 289 288 286 291 294 293 291 290 290 293 292 291 287 281 278 272 271 274 279 283 285 290
256 256 252 247 247 248 247 247 249 252 254 257 262 262 264 263 263 265 268 274 280 284 284 285 284 287 289 289 285 282 284 286 288 288 284 279 275 275 274 273 277 279 280 284
255 255 254 249 246 247 244 245 248 251 253 255 258 259 260 261 262 266 271 274 278 281 279 282 283 283 284 285 283 281 280 282 284 284 281 275 273 274 274 274 274 277 278 279
256 255 254 252 251 248 244 245 247 248 251 253 256 260 259 260 261 266 270 273 278 278 276 276 278 279 281 282 281 280 281 281 281 283 281 275 275 273 273 273 273 274 277 277
257 256 256 253 251 249 246 246 248 251 253 253 255 257 258 259 263 266 269 271 275 277 276 275 275 276 277 277 277 277 276 277 279 281 280 274 274 275 274 271 272 273 273 274
258 258 257 254 252 250 248 247 251 251 253 253 251 253 257 257 259 263 266 269 271 271 272 274 274 274 270 271 273 272 272 274 276 276 275 275 276 275 274 272 271 271 271 271
258 258 256 254 253 253 251 250 251 250 250 254 252 253 255 255 258 262 265 266 265 266 270 273 272 270 270 270 272 273 273 273 275 273 271 271 275 276 273 274 273 271 273 272
259 257 255 253 252 252 252 251 251 252 253 255 254 252 253 254 256 260 262 261 261 262 265 268 269 269 269 269 269 270 271 271 272 273 270 268 271 273 273 274 274 273 273 272
259 258 257 254 253 253 250 249 251 253 254 255 254 254 255 256 257 259 261 261 262 261 262 264 266 267 267 269 269 268 269 268 270 270 268 269 270 271 273 275 275 273 273 273
259 258 257 255 253 252 250 248 252 254 254 252 255 257 258 260 261 262 262 261 260 260 261 263 265 266 267 268 269 269 268 268 269 270 269 270 274 273 273 273 273 272 272 273
260 258 256 255 255 254 253 251 253 253 256 254 255 256 259 261 263 264 264 262 260 260 262 263 264 265 266 267 268 267 266 268 268 269 271 271 272 273 274 273 272 272 271 272
259 259 257 256 255 254 255 252 254 256 256 257 258 259 261 262 263 263 264 263 261 262 263 263 263 263 265 267 267 266 264 264 265 268 270 270 269 270 271 272 272 271 270 269
255 257 258 257 256 258 259 257 257 257 258 260 261 262 262 262 263 263 264 263 262 262 264 264 264 264 264 265 266 265 263 263 264 266 267 268 268 268 268 270 270 270 269 268
253 255 257 257 256 257 258 258 259 260 261 262 262 264 264 263 263 263 264 264 264 263 263 263 263 262 262 264 264 263 262 263 264 266 266 267 267 267 267 268 269 269 269 268
254 256 256 256 255 255 257 260 261 262 262 263 263 263 264 265 263 264 264 265 265 264 263 263 262 263 264 263 263 262 262 263 263 263 264 265 266 266 266 266 267 268 269 270
255 256 256 256 255 256 257 259 260 262 262 262 264 265 265 266 264 264 265 265 266 266 265 265 263 263 263 263 262 262 262 263 263 262 263 265 265 265 265 266 267 268 268 269
Height
5868 5869 5869 5869 5869 5869 5868 5868 5868 5868 5867 5867 5867 5867 5866 5865 5864 5864 5863 5862 5861 5860 5859 5858 5856 5855 5854 5853 5852 5852 5851 5850 5849 5848 5847 5846 5845 5844 5844 5843 5842 5842 5841 5840
5866 5866 5867 5866 5866 5866 5866 5865 5866 5866 5865 5865 5865 5864 5864 5863 5862 5861 5861 5860 5859 5858 5857 5856 5855 5854 5853 5852 5851 5850 5850 5849 5848 5847 5846 5845 5844 5843 5842 5842 5841 5840 5840 5839
5863 5864 5864 5864 5864 5863 5863 5863 5863 5863 5863 5862 5863 5863 5862 5861 5860 5860 5859 5858 5857 5856 5855 5854 5853 5852 5851 5850 5850 5849 5848 5847 5846 5845 5844 5843 5842 5842 5841 5840 5840 5839 5838 5838
5859 5860 5860 5860 5861 5861 5861 5861 5861 5861 5860 5860 5861 5860 5860 5859 5859 5858 5857 5856 5855 5854 5853 5853 5852 5851 5850 5849 5848 5847 5846 5846 5845 5844 5843 5842 5841 5840 5840 5839 5838 5838 5837 5836
5855 5856 5856 5856 5857 5857 5858 5858 5858 5858 5857 5857 5857 5857 5859 5857 5856 5856 5855 5854 5854 5852 5851 5851 5850 5849 5849 5848 5847 5846 5845 5844 5843 5842 5841 5841 5840 5839 5838 5838 5837 5837 5836 5835
5851 5851 5852 5853 5853 5854 5854 5855 5854 5854 5854 5854 5854 5854 5855 5855 5854 5854 5853 5852 5851 5851 5850 5849 5848 5848 5847 5846 5845 5844 5843 5842 5841 5841 5840 5839 5838 5838 5837 5836 5836 5836 5835 5834
5846 5847 5848 5848 5849 5850 5850 5851 5851 5850 5850 5851 5852 5850 5852 5852 5852 5851 5850 5850 5849 5848 5848 5847 5847 5846 5845 5844 5843 5842 5842 5841 5840 5839 5838 5838 5837 5836 5836 5835 5835 5834 5834 5833
5841 5843 5844 5844 5845 5846 5846 5847 5848 5848 5847 5848 5848 5847 5849 5849 5849 5848 5848 5847 5847 5846 5846 5845 5844 5844 5843 5842 5841 5841 5840 5839 5838 5837 5836 5836 5835 5835 5834 5834 5833 5833 5832 5831
5836 5838 5839 5840 5841 5842 5842 5842 5843 5844 5843 5844 5844 5845 5845 5846 5846 5845 5845 5844 5844 5844 5843 5842 5842 5841 5841 5840 5839 5839 5838 5837 5836 5835 5834 5834 5833 5833 5832 5832 5831 5831 5830 5830
5831 5833 5834 5835 5836 5837 5838 5839 5839 5839 5839 5839 5840 5841 5843 5843 5843 5842 5842 5841 5841 5841 5840 5840 5839 5839 5838 5837 5837 5836 5835 5835 5834 5833 5832 5832 5831 5831 5831 5830 5830 5829 5829 5828
5826 5827 5829 5830 5831 5832 5834 5834 5834 5834 5835 5836 5836 5840 5839 5839 5839 5839 5838 5838 5838 5837 5837 5836 5836 5836 5835 5835 5834 5833 5832 5832 5831 5830 5830 5829 5829 5829 5828 5828 5828 5827 5827 5826
5821 5822 5823 5825 5826 5827 5828 5828 5829 5830 5831 5831 5832 5837 5835 5835 5835 5835 5835 5834 5834 5834 5833 5833 5833 5833 5832 5832 5831 5830 5830 5829 5828 5827 5827 5827 5826 5826 5826 5826 5825 5825 5824 5824
5816 5817 5818 5819 5822 5822 5822 5822 5824 5825 5826 5826 5828 5832 5830 5830 5830 5830 5831 5830 5830 5830 5830 5830 5829 5829 5829 5828 5828 5827 5826 5826 5825 5824 5824 5823 5823 5823 5823 5823 5822 5822 5822 5821
5810 5811 5813 5814 5815 5815 5816 5818 5818 5820 5820 5821 5823 5825 5825 5825 5825 5826 5826 5826 5826 5826 5826 5826 5825 5825 5825 5824 5824 5824 5823 5822 5822 5821 5820 5820 5820 5820 5819 5819 5819 5819 5819 5818
5804 5805 5805 5807 5808 5809 5810 5812 5813 5814 5815 5816 5818 5819 5820 5820 5821 5821 5822 5822 5821 5821 5822 5822 5821 5821 5821 5820 5820 5820 5819 5819 5818 5817 5817 5816 5816 5816 5815 5815 5815 5815 5815 5815
5798 5799 5800 5801 5802 5803 5804 5806 5807 5808 5809 5810 5811 5813 5814 5814 5816 5816 5817 5817 5817 5817 5817 5817 5817 5817 5816 5816 5816 5816 5815 5815 5814 5814 5813 5812 5812 5812 5811 5811 5811 5811 5811 5811
5792 5793 5794 5795 5796 5797 5798 5800 5801 5802 5803 5804 5805 5807 5808 5808 5809 5810 5811 5811 5812 5812 5812 5812 5812 5812 5812 5812 5811 5811 5810 5810 5810 5809 5809 5809 5808 5808 5808 5807 5807 5807 5807 5807
5786 5786 5787 5788 5790 5790 5795 5794 5795 5796 5797 5798 5799 5800 5801 5802 5803 5804 5805 5805 5806 5806 5806 5806 5806 5807 5807 5807 5806 5806 5805 5805 5805 5805 5804 5804 5804 5804 5803 5803 5803 5803 5803 5802
5779 5780 5781 5782 5782 5784 5788 5788 5788 5789 5791 5792 5793 5794 5795 5795 5796 5797 5798 5798 5799 5800 5800 5801 5801 5801 5801 5801 5801 5800 5800 5800 5800 5800 5799 5799 5799 5799 5799 5798 5798 5798 5798 5798
5773 5774 5775 5775 5775 5777 5782 5782 5782 5784 5784 5786 5786 5787 5788 5788 5789 5791 5791 5791 5792 5793 5793 5794 5794 5794 5794 5794 5795 5795 5794 5794 5794 5794 5794 5794 5794 5793 5793 5793 5793 5793 5793 5793
5767 5767 5768 5769 5768 5770 5774 5774 5775 5777 5779 5779 5779 5780 5781 5781 5783 5784 5784 5784 5785 5785 5786 5786 5786 5787 5787 5787 5788 5788 5788 5788 5788 5788 5788 5788 5788 5788 5788 5788 5787 5787 5787 5787
5760 5760 5761 5762 5762 5766 5766 5767 5769 5770 5770 5771 5772 5772 5773 5774 5774 5775 5775 5776 5777 5777 5778 5778 5779 5779 5780 5780 5780 5781 5781 5781 5781 5781 5781 5782 5782 5782 5782 5781 5781 5781 5781 5781
5752 5754 5754 5756 5758 5758 5759 5759 5760 5761 5762 5763 5764 5764 5765 5765 5766 5767 5767 5768 5768 5769 5770 5770 5771 5771 5772 5772 5772 5773 5773 5773 5774 5774 5774 5774 5775 5775 5775 5775 5775 5775 5775 5775
5746 5746 5746 5748 5749 5750 5751 5751 5752 5753 5754 5755 5756 5756 5756 5757 5757 5758 5758 5759 5759 5760 5761 5761 5762 5763 5764 5764 5764 5765 5765 5766 5766 5766 5766 5767 5767 5768 5768 5768 5768 5768 5768 5768
5738 5738 5739 5740 5741 5742 5743 5743 5744 5745 5746 5746 5747 5748 5748 5748 5749 5749 5750 5750 5750 5751 5752 5753 5753 5754 5755 5755 5756 5756 5757 5757 5758 5758 5758 5758 5759 5759 5760 5760 5760 5761 5761 5760
5730 5730 5731 5732 5734 5734 5735 5736 5736 5737 5738 5738 5739 5739 5739 5739 5740 5740 5741 5741 5742 5742 5743 5744 5744 5745 5746 5746 5747 5748 5748 5748 5749 5749 5750 5750 5750 5751 5751 5752 5752 5752 5752 5752